#timestamp,LO_Frequency,Hit,StdDev 
1591009215.4,286046998.0,N
1591009235.2,286046999.2,N
1591009255.1,286046998.1,N
1591009256.0,286046998.1,N
1591009275.8,286046998.1,N
1591009295.7,286046998.9,N
1591009315.5,286046998.8,N
1591009335.3,286046998.4,N
1591009355.2,286046999.0,N
1591009375.9,286046999.5,N
1591009395.7,286046997.2,N
1591009415.6,286046998.0,N
1591009435.4,286046997.7,N
1591009455.2,286046995.5,Y
1591009475.1,286046997.1,P
1591009476.0,286046997.1,P
1591009495.8,286046996.5,P
1591009515.7,286046999.2,N
1591009535.5,286046999.2,N
1591009555.3,286046999.2,N
1591009575.2,286046997.7,N
1591009595.0,286046995.4,Y
1591009595.9,286046995.4,P
1591009615.8,286046996.6,N
1591009635.6,286046998.0,N
1591009655.4,286046997.0,N
1591009675.3,286046995.0,Y
1591009695.1,286047000.9,P
1591009696.0,286047000.9,N
1591009715.8,286047001.2,N
1591009735.7,286046998.7,N
1591009755.5,286047001.1,N
1591009775.3,286047000.9,N
1591009795.2,286047000.3,N
1591009815.0,286046999.9,N
1591009815.9,286046999.9,N
1591009835.8,286047000.9,N
1591009855.6,286047000.6,N
1591009875.4,286046998.1,N
1591009895.3,286047000.3,N
1591009915.1,286047001.1,N
1591009935.8,286047000.3,N
1591009955.7,286047000.2,N
1591009975.5,286047002.1,N
1591009995.4,286046999.9,N
1591010015.2,286047000.4,N
1591010035.0,286047002.8,N
1591010035.9,286047002.8,N
1591010055.8,286046999.7,N
1591010075.6,286047000.1,N
1591010095.4,286047001.8,N
1591010115.3,286047002.0,N
1591010135.1,286047001.4,N
1591010155.9,286047004.4,Y
1591010175.7,286047002.1,P
1591010195.5,286047002.6,P
1591010215.4,286047000.5,N
1591010235.2,286046998.3,N
1591010255.0,286047004.1,N
1591010255.9,286047004.1,N
1591010275.8,286047000.4,N
1591010295.6,286047000.2,N
1591010315.5,286047000.5,N
1591010335.3,286046997.1,N
1591010355.1,286046999.5,N
1591010375.9,286046999.0,N
1591010395.7,286046999.0,N
1591010415.5,286046996.7,N
1591010435.4,286046997.6,N
1591010455.2,286046995.4,N
1591010475.1,286046997.5,N
1591010476.0,286046997.5,N
1591010495.8,286046995.1,N
1591010515.6,286046995.5,N
1591010535.5,286046996.1,N
1591010555.3,286046996.0,N
1591010575.1,286046996.0,N
1591010595.9,286046994.0,N
1591010615.7,286046993.5,N
1591010635.6,286046993.4,N
1591010655.4,286046995.9,N
1591010675.2,286046994.0,N
1591010695.1,286046993.7,N
1591010696.0,286046993.7,N
1591010715.8,286046991.7,N
1591010735.6,286046993.8,N
1591010755.5,286046994.1,N
1591010775.3,286046994.4,N
1591010795.2,286046991.7,N
1591010815.9,286046992.0,N
1591010835.7,286046990.2,Y
1591010855.6,286046996.7,P
1591010875.4,286046997.3,P
1591010895.2,286046997.5,P
1591010915.1,286046995.5,Y
1591010916.0,286046995.5,P
1591010935.8,286047000.1,N
1591010955.7,286046998.1,N
1591010975.5,286046996.6,N
1591010995.3,286046999.0,N
1591011015.2,286046996.8,N
1591011035.0,286046997.2,N
1591011035.9,286046997.2,N
1591011055.7,286046997.7,N
1591011075.6,286046997.3,N
1591011095.4,286046999.5,N
1591011115.3,286047000.7,N
1591011135.1,286046999.8,N
1591011136.0,286046999.8,N
1591011155.8,286047002.7,N
1591011175.7,286047001.5,N
1591011195.5,286047002.3,N
1591011215.3,286047002.6,N
1591011235.2,286046999.9,N
1591011255.0,286047000.8,N
1591011255.9,286047000.8,N
1591011275.8,286046998.2,N
1591011295.6,286046998.2,N
1591011315.4,286046998.3,N
1591011335.3,286046999.3,N
1591011355.1,286046997.0,N
1591011375.8,286046997.9,N
1591011395.7,286046995.3,N
1591011415.5,286046997.6,N
1591011435.4,286046997.1,N
1591011455.2,286046993.9,Y
1591011475.0,286046996.3,P
1591011475.9,286046996.3,N
1591011495.8,286046994.9,P
1591011515.6,286046996.6,N
1591011535.4,286046999.2,N
1591011555.3,286046999.4,N
1591011575.1,286046999.3,N
1591011595.9,286046999.3,N
1591011615.7,286047001.0,N
1591011635.5,286047000.4,N
1591011655.4,286047002.4,N
1591011675.2,286047004.1,N
1591011695.1,286047005.8,N
1591011696.0,286047005.8,N
1591011715.8,286047005.7,N
1591011735.6,286047005.3,N
1591011755.5,286047005.4,N
1591011775.3,286047003.3,N
1591011795.1,286047001.6,N
1591011815.9,286047002.8,N
1591011835.7,286047002.0,N
1591011855.5,286047001.6,N
1591011875.4,286047000.6,N
1591011895.2,286047000.6,N
1591011915.1,286047000.9,N
1591011916.0,286047000.9,N
1591011935.8,286047002.3,N
1591011955.6,286047000.6,N
1591011975.5,286047002.1,N
1591011995.3,286047002.6,N
1591012015.2,286047002.8,N
1591012035.9,286047000.0,N
1591012055.7,286047000.3,N
1591012075.6,286047001.2,N
1591012095.4,286046996.5,N
1591012115.2,286046997.7,N
1591012135.1,286046997.0,N
1591012136.0,286046997.0,N
1591012155.8,286046995.4,N
1591012175.7,286046995.7,N
1591012195.5,286046993.3,N
1591012215.3,286046996.2,N
1591012235.2,286046995.9,N
1591012255.0,286046993.9,N
1591012255.9,286046993.9,N
1591012275.8,286046994.7,N
1591012295.6,286046995.2,N
1591012315.4,286046995.0,N
1591012335.3,286046995.2,N
1591012355.1,286046995.3,N
1591012356.0,286046995.3,N
1591012375.8,286046995.7,N
1591012395.7,286046995.5,N
1591012415.5,286046994.9,N
1591012435.3,286046996.1,N
1591012455.2,286046996.1,N
1591012475.0,286046996.2,N
1591012475.9,286046996.2,N
1591012495.8,286046996.1,N
1591012515.6,286046996.1,N
1591012535.4,286046995.3,N
1591012555.3,286046993.7,Y
1591012575.1,286046999.5,P
1591012595.8,286046999.1,N
1591012615.7,286046997.9,N
1591012635.5,286046999.5,N
1591012655.4,286046999.6,N
1591012675.2,286046996.6,N
1591012695.0,286046999.4,N
1591012695.9,286046999.4,N
1591012715.8,286046998.8,N
1591012735.6,286047000.5,N
1591012755.4,286047000.0,N
1591012775.3,286047000.5,N
1591012795.1,286046998.6,N
